Regional Weather Roundup
Issued by NWS

Home | Current Version | Previous Version | Text Only | Print | Product List | Glossary On
Versions: 1 2 3 4 5 6 7 8 9 10 11 12 13 14 15 16 17 18 19 20 21 22 23 24 25 26 27 28 29 30 31 32 33 34 35 36 37 38 39 40 41 42 43 44 45 46 47 48 49 50
000
ASUS43 KBIS 210210
RWRND

NORTH DAKOTA REGIONAL WEATHER ROUNDUP
NATIONAL WEATHER SERVICE BISMARCK ND
900 PM CDT WED AUG 20 2014

NOTE: "FAIR" INDICATES FEW OR NO CLOUDS BELOW 12,000 FEET WITH NO
SIGNIFICANT WEATHER AND/OR OBSTRUCTIONS TO VISIBILITY.


NDZ001>003-009>011-017-210300-
NORTHWEST NORTH DAKOTA

CITY           SKY/WX    TMP DP  RH WIND       PRES   REMARKS
WILLISTON      MOCLDY    69  63  81 W5        29.75R
MINOT          CLOUDY    65  63  93 NE5       29.74R
MINOT AFB      CLOUDY    66  66  99 E6        29.74S
$$

NDZ018>021-031>035-040>046-210300-
SOUTHWEST NORTH DAKOTA

CITY           SKY/WX    TMP DP  RH WIND       PRES   REMARKS
BISMARCK       RAIN      69  67  93 E13       29.72F
DICKINSON      PTCLDY    66  61  84 NW7       29.76R
GARRISON         N/A     69  67  93 E8        29.74R
HETTINGER ARPT CLEAR     65  61  87 CALM      29.79R
$$

NDZ004>008-012>016-024-026-027-054-210300-
NORTHEAST NORTH DAKOTA

CITY           SKY/WX    TMP DP  RH WIND       PRES   REMARKS
GRAND FORKS    MOCLDY    75  68  78 SE8       29.76F
GRND FRKS AFB  MOCLDY    74  71  89 SE9       29.77F
DEVILS LAKE    CLOUDY    75  64  69 E13       29.74S
$$

NDZ022-023-025-028>030-036>039-047>053-210300-
SOUTHEAST NORTH DAKOTA

CITY           SKY/WX    TMP DP  RH WIND       PRES   REMARKS
FARGO          MOCLDY    75  68  78 E8        29.78R
JAMESTOWN      CLOUDY    74  68  81 E8        29.75F
$$



USA.gov is the U.S. government's official web portal to all federal, state and local government web resources and services.